Location: Boiro
(42.6475°N, 8.8834°W)
Time: 18:35:21
(UTC+01:00)

Altair - Pass Details

Date: 03 December 2021
Orbit: 1501 x 1683 km, 47.2° (Epoch: 25 January)

Event Time Altitude Azimuth Distance (km) Brightness Sun altitude
Rises 14:38:09 0° 179° (S) 4,820 11.3 23.0°
Reaches altitude 10° 14:42:47 10° 161° (SSE) 3,802 10.5 22.8°
Maximum altitude 14:48:18 17° 125° (SE) 3,245 9.5 22.4°
Drops below altitude 10° 14:53:41 10° 90° (E) 3,730 9.4 22.1°
Sets 14:58:07 0° 71° (ENE) 4,687 9.7 21.7°
